Flight Information

DEPARTURE
PASCO, WA
Elevation:
410
Runways:
12/30 - 7704x150 - ASPH-G
3L/21R - 7707x150 - ASPH-G
3R/21L - 4423x75 - ASPH-F
ATIS:
125.65
Clearance Delivery:
120
Ground:
121.8
Tower:
TRI-CITIES TOWER 135.3
DESTINATION
,
Elevation:
TPA:
1000 (est.)


6579.3 NM68° True-19° Var49° HDG

Flight Plan:
(click to file on line)

1. Type
2. Aircraft Identification
3. Aircraft Type / Special Equipment
4. True Airspeed
kts
5. Departure Airport
(ICAO code)
6. Arriving Airport
(ICAO code)
7. Cruising Altitude
ft
8. Alternate Airport
(ICAO code)
9. Route of Flight
10. Remarks


00:00:00 Departure ATIS: Destination ATIS:

Clearance Limit:
Route:
Altitude: Expect in minutes
Frequency:
Transponder: (7500 Hijack / 7600 Lost Comms / 7700 Emergency)


KPSC 110253Z 31012KT 10SM CLR 07/M08 A3021 RMK AO2 PK WND 31026/0205 SLP231 T00721078 51020
Time: 2021-04-11T02:53:00Z
1618113114
Winds: 310 @ 12 kts
Visibility: 10.0 sm
Clouds (AGL): CLR
Temperature: 7.2 C
Dew Point: -7.8 C
Pressure: 30.209646 in Hgbr


Notes:

Data extracted from FAA Digital Chart Supplement. Effective: 0901Z Thursday, Feb 25, 2021 to 0901Z Thursday, APR 22, 2021
Current ATIS data is provided courtisy of PilotEdge.